Weather History for Stevens Point, WI

Change the Weather History Date:

Monday, November 4, 2013

  Actual Average Record
Temperature  
Mean Temperature 42 °F -  
Max Temperature 47 °F 46 °F 74 °F (1964)
Min Temperature 38 °F 28 °F 5 °F (1951)
Degree Days  
Heating Degree Days 22    
Moisture  
Dew Point 37 °F    
Average Humidity 79    
Maximum Humidity 97    
Minimum Humidity 63    
Precipitation  
Precipitation 0.01 in - - ()
Sea Level Pressure  
Sea Level Pressure 30.07 in    
Wind  
Wind Speed 11 mph (South)    
Max Wind Speed 16 mph    
Max Gust Speed 25 mph    
Visibility 9 miles    
Events Rain    
Averages and records for this station are not official NWS values.
T = Trace of Precipitation, MM = Missing Value Source: NWS Daily Summary

Daily Weather History Graph

Daily Weather History Graph

Search for Another Location

Airport:

Trip Planner

Search our weather history database for the weather conditions in past years. The results will help you decide how hot, cold, wet, or windy it might be!

Date:

Astronomy

Nov. 04, 2013 Rise Set
Actual Time 6:40 AM CST 4:42 PM CST
Civil Twilight 6:09 AM CST 5:13 PM CST
Nautical Twilight 5:34 AM CST 5:47 PM CST
Astronomical Twilight 5:00 AM CST 6:21 PM CST
Moon 7:53 AM CST (11/4) 5:44 PM CST (11/4)
Length of Visible Light 11h 03m
Length of Day
10h 02m
New Moon, 2% of the Moon is Illuminated
Nov 4
New Moon
Nov 9
First Quarter
Nov 17
Full
Nov 25
Last Quarter
Dec 2
New

Hourly Weather History & Observations

Time (CST) Temp. Windchill Dew Point Humidity Pressure Visibility Wind Dir Wind Speed Gust Speed Precip Events Conditions
12:15 AM 38.3 °F 32.5 °F 33.3 °F 82% 30.16 in 10.0 mi SE 8.1 mph - N/A   Clear
12:35 AM 38.7 °F 32.4 °F 33.4 °F 81% 30.16 in 10.0 mi SE 9.2 mph 16.1 mph N/A   Clear
12:55 AM 38.8 °F 32.6 °F 33.8 °F 82% 30.16 in 10.0 mi SE 9.2 mph - N/A   Clear
1:15 AM 39.2 °F 32.5 °F 33.8 °F 81% 30.16 in 10.0 mi SE 10.4 mph 16.1 mph N/A   Clear
1:35 AM 39.6 °F 33.0 °F 34.0 °F 80% 30.15 in 10.0 mi SSE 10.4 mph 19.6 mph N/A   Clear
1:55 AM 39.6 °F 33.0 °F 34.0 °F 80% 30.15 in 10.0 mi SE 10.4 mph 16.1 mph N/A   Clear
2:15 AM 40.1 °F 33.2 °F 34.0 °F 79% 30.13 in 10.0 mi SE 11.5 mph 18.4 mph N/A   Clear
2:35 AM 40.3 °F 32.2 °F 34.2 °F 79% 30.13 in 10.0 mi SE 15.0 mph 20.7 mph N/A   Clear
2:55 AM 40.5 °F 32.5 °F 33.8 °F 77% 30.14 in 10.0 mi SSE 15.0 mph 19.6 mph N/A   Clear
3:15 AM 40.5 °F 32.5 °F 33.8 °F 77% 30.13 in 10.0 mi SE 15.0 mph 21.9 mph N/A   Clear
3:35 AM 41.0 °F 33.1 °F 33.3 °F 74% 30.13 in 10.0 mi SSE 15.0 mph 20.7 mph N/A   Clear
3:55 AM 41.0 °F 33.9 °F 33.3 °F 74% 30.12 in 10.0 mi SE 12.7 mph 24.2 mph N/A   Clear
4:15 AM 41.0 °F 34.3 °F 33.1 °F 73% 30.12 in 10.0 mi SSE 11.5 mph 18.4 mph N/A   Clear
4:35 AM 41.4 °F 34.0 °F 32.9 °F 72% 30.12 in 10.0 mi SE 13.8 mph 20.7 mph N/A   Clear
4:55 AM 41.4 °F 35.2 °F 32.9 °F 72% 30.11 in 10.0 mi SE 10.4 mph 20.7 mph N/A   Clear
5:15 AM 41.2 °F 34.1 °F 32.9 °F 72% 30.11 in 10.0 mi SSE 12.7 mph 19.6 mph N/A   Clear
5:35 AM 41.0 °F 34.3 °F 32.7 °F 72% 30.10 in 10.0 mi SE 11.5 mph 18.4 mph N/A   Clear
5:55 AM 41.0 °F 33.5 °F 33.1 °F 73% 30.10 in 10.0 mi SE 13.8 mph 20.7 mph N/A   Clear
6:15 AM 41.0 °F 34.7 °F 33.1 °F 73% 30.09 in 10.0 mi SE 10.4 mph 20.7 mph N/A   Scattered Clouds
6:35 AM 41.0 °F 34.7 °F 32.9 °F 73% 30.09 in 10.0 mi SE 10.4 mph 17.3 mph N/A   Scattered Clouds
6:55 AM 41.4 °F 34.3 °F 32.9 °F 72% 30.08 in 10.0 mi SSE 12.7 mph 17.3 mph N/A   Mostly Cloudy
7:15 AM 41.2 °F 33.7 °F 33.1 °F 73% 30.08 in 10.0 mi SSE 13.8 mph 19.6 mph N/A   Overcast
7:35 AM 41.4 °F 34.0 °F 33.3 °F 73% 30.07 in 10.0 mi SSE 13.8 mph 23.0 mph N/A   Overcast
7:55 AM 41.9 °F 35.4 °F 33.3 °F 71% 30.08 in 10.0 mi SSE 11.5 mph 18.4 mph N/A   Overcast
8:15 AM 42.4 °F 35.7 °F 33.6 °F 71% 30.07 in 10.0 mi SSE 12.7 mph 23.0 mph N/A   Overcast
8:35 AM 43.0 °F 35.4 °F 33.8 °F 70% 30.07 in 10.0 mi SSE 16.1 mph 24.2 mph N/A   Mostly Cloudy
8:55 AM 43.2 °F 35.9 °F 33.8 °F 70% 30.07 in 10.0 mi SSE 15.0 mph 24.2 mph N/A   Scattered Clouds
9:15 AM 43.3 °F 35.8 °F 34.0 °F 70% 30.07 in 10.0 mi SSE 16.1 mph 21.9 mph N/A   Clear
9:35 AM 43.7 °F 37.3 °F 34.0 °F 69% 30.06 in 10.0 mi SSE 12.7 mph 25.3 mph N/A   Clear
9:55 AM 43.9 °F 37.2 °F 34.3 °F 69% 30.07 in 10.0 mi SSE 13.8 mph 21.9 mph N/A   Clear
10:15 AM 44.1 °F 37.7 °F 34.3 °F 69% 30.07 in 10.0 mi SSE 12.7 mph 21.9 mph N/A   Clear
10:35 AM 44.6 °F 38.8 °F 34.5 °F 68% 30.06 in 10.0 mi SSE 11.5 mph 18.4 mph N/A   Clear
10:55 AM 45.1 °F 38.8 °F 34.7 °F 67% 30.05 in 10.0 mi SSE 13.8 mph 20.7 mph N/A   Clear
11:15 AM 45.5 °F 39.9 °F 34.9 °F 66% 30.04 in 10.0 mi SSE 11.5 mph 20.7 mph N/A   Scattered Clouds
11:35 AM 46.2 °F 41.2 °F 34.7 °F 64% 30.04 in 10.0 mi South 10.4 mph 23.0 mph N/A   Mostly Cloudy
11:55 AM 46.0 °F 39.3 °F 34.9 °F 65% 30.01 in 10.0 mi South 16.1 mph 23.0 mph N/A   Scattered Clouds
12:15 PM 47.1 °F - 35.2 °F 63% 29.99 in 10.0 mi SSE 12.7 mph 19.6 mph N/A   Scattered Clouds
12:35 PM 47.5 °F - 35.2 °F 63% 30.00 in 10.0 mi South 16.1 mph 21.9 mph N/A   Mostly Cloudy
12:55 PM 47.8 °F - 35.6 °F 63% 29.99 in 10.0 mi South 15.0 mph 24.2 mph N/A   Overcast
1:15 PM 47.8 °F - 35.8 °F 63% 30.00 in 10.0 mi South 12.7 mph 21.9 mph N/A   Overcast
1:35 PM 47.8 °F - 35.8 °F 63% 29.99 in 10.0 mi South 15.0 mph 20.7 mph N/A   Overcast
1:55 PM 47.5 °F - 36.0 °F 64% 29.98 in 10.0 mi South 10.4 mph 21.9 mph N/A   Overcast
2:15 PM 47.5 °F - 36.1 °F 65% 29.98 in 10.0 mi South 10.4 mph 21.9 mph N/A   Overcast
2:35 PM 47.3 °F - 36.1 °F 65% 29.98 in 10.0 mi South 13.8 mph 19.6 mph N/A   Overcast
2:55 PM 46.4 °F 41.1 °F 37.4 °F 71% 29.99 in 10.0 mi South 11.5 mph - N/A Rain Light Rain
3:15 PM 45.5 °F 40.8 °F 38.3 °F 76% 30.01 in 10.0 mi South 9.2 mph - N/A Rain Light Rain
3:35 PM 44.8 °F 39.0 °F 39.4 °F 81% 30.01 in 7.0 mi South 11.5 mph - N/A   Drizzle
3:55 PM 43.9 °F 37.5 °F 40.5 °F 88% 30.01 in 4.0 mi SSW 12.7 mph - N/A   Drizzle
4:15 PM 43.2 °F 39.0 °F 41.2 °F 93% 30.01 in 5.0 mi South 6.9 mph - N/A Rain Light Rain
4:35 PM 43.0 °F 38.2 °F 41.4 °F 94% 30.01 in 7.0 mi South 8.1 mph - N/A Rain Rain
4:55 PM 43.2 °F 37.4 °F 41.2 °F 93% 30.01 in 10.0 mi South 10.4 mph - N/A   Overcast
5:15 PM 43.0 °F 37.7 °F 41.0 °F 93% 30.02 in 10.0 mi South 9.2 mph - N/A   Overcast
5:35 PM 43.0 °F 39.5 °F 41.0 °F 93% 30.03 in 10.0 mi South 5.8 mph - 0.01 in   Overcast
5:55 PM 42.8 °F 39.3 °F 41.2 °F 94% 30.03 in 7.0 mi South 5.8 mph - 0.01 in   Drizzle
6:15 PM 42.8 °F 38.6 °F 41.2 °F 94% 30.04 in 5.0 mi South 6.9 mph - N/A   Drizzle
6:35 PM 42.8 °F 37.0 °F 41.4 °F 95% 30.04 in 7.0 mi South 10.4 mph - N/A   Light Drizzle
6:55 PM 42.8 °F 38.0 °F 41.7 °F 96% 30.05 in 5.0 mi SSW 8.1 mph - N/A   Overcast
7:15 PM 43.0 °F 37.2 °F 41.9 °F 96% 30.06 in 4.0 mi SSW 10.4 mph - N/A   Overcast
7:35 PM 43.0 °F 38.2 °F 42.1 °F 97% 30.06 in 3.0 mi SSW 8.1 mph - N/A   Overcast
7:55 PM 43.2 °F 37.4 °F 42.4 °F 97% 30.06 in 3.0 mi SSW 10.4 mph - N/A   Overcast
8:15 PM 43.3 °F 38.1 °F 42.6 °F 97% 30.06 in 3.0 mi SSW 9.2 mph - N/A   Overcast
8:35 PM 43.5 °F 38.9 °F 42.8 °F 97% 30.07 in 4.0 mi SSW 8.1 mph - N/A   Overcast
8:55 PM 43.9 °F 39.3 °F 43.2 °F 97% 30.08 in 5.0 mi SSW 8.1 mph - N/A   Overcast
9:15 PM 44.1 °F 39.0 °F 43.2 °F 97% 30.09 in 7.0 mi SW 9.2 mph - N/A   Overcast
9:35 PM 44.1 °F 39.0 °F 43.2 °F 97% 30.10 in 5.0 mi SW 9.2 mph - N/A   Overcast
9:55 PM 44.2 °F 39.7 °F 43.2 °F 96% 30.10 in 5.0 mi SW 8.1 mph - N/A   Overcast
10:15 PM 44.2 °F 39.2 °F 43.2 °F 96% 30.10 in 5.0 mi SW 9.2 mph - N/A   Overcast
10:35 PM 44.6 °F 40.7 °F 43.0 °F 94% 30.11 in 7.0 mi WSW 6.9 mph - N/A   Overcast
10:55 PM 44.6 °F 40.2 °F 42.4 °F 92% 30.12 in 10.0 mi West 8.1 mph - N/A   Overcast
11:15 PM 44.1 °F 40.8 °F 40.8 °F 88% 30.13 in 10.0 mi West 5.8 mph - N/A   Overcast
11:35 PM 43.7 °F 39.7 °F 40.1 °F 87% 30.13 in 10.0 mi WNW 6.9 mph - N/A   Overcast
11:55 PM 43.2 °F 40.5 °F 39.7 °F 88% 30.14 in 10.0 mi West 4.6 mph - N/A   Overcast